Home   Weather   Mattersburg   Past weeks

Flag for Austria Past Weather in Mattersburg, Burgenland, Austria — Yesterday and Last 2 Weeks

Now
56 °F

Cool.


Feels Like: 56 °F
Forecast: 43 / 71 °F
Wind: 3 mph from North

Location: Eisenstadt

Current Time: Sep 27, 2016 at 10:45:27 PM

Latest Report: Sep 27, 2016 at 10:00 PM


Visibility: N/A

Pressure: 30.35 "Hg

Humidity: 76%

Dew Point: 48 °F

Location of MattersburgLocation

Past Weather in Mattersburg — Graph

°F

Mattersburg Temperature Yesterday

Maximum temperature yesterday: 69 °F (at 3:00 PM)
Minimum temperature yesterday: 49 °F (at 7:00 AM)
Average temperature yesterday: 58 °F

High & Low Weather Summary for the Past Weeks

 TemperatureHumidityPressure
High84 °F (Sep 13, 4:00 PM)95% (Sep 18, 7:00 AM)30.33 "Hg (Sep 18, 7:00 AM)
Low44 °F (Sep 23, 7:00 AM)36% (Sep 13, 4:00 PM)29.75 "Hg (Sep 17, 5:00 AM)
Average62 °F71%30.04 "Hg
* Reported Sep 12 8:00 PM — Sep 27 8:00 PM, Mattersburg, Weather by CustomWeather, © 2016

Note: Actual official high and low records may vary slightly from our data, if they occured in-between our weather recording intervals... More about our weather records

Advertising

Mattersburg Weather History for the Previous 24 Hours

Scroll right to see more
 ConditionsComfort  
Time TempWeatherWind HumidityBarometerVisibility
8:00 PM
Tue, Sep 27
58 °FPassing clouds.6 mph72%30.33 "Hg9 mi
7:00 PM60 °FPassing clouds.6 mph71%30.31 "Hg9 mi
6:00 PM68 °FMild.1 mph54%30.28 "HgN/A
5:00 PM70 °FPassing clouds.2 mph43%30.27 "Hg9 mi
4:00 PM70 °FMild.2 mph44%30.27 "HgN/A
3:00 PM69 °FMild.2 mph45%30.27 "HgN/A
2:00 PM68 °FSunny.2 mph49%30.27 "Hg11 mi
1:00 PM65 °FMild.2 mph56%30.29 "HgN/A
12:00 PM63 °FMild.2 mph62%30.29 "HgN/A
11:00 AM59 °FScattered clouds.2 mph69%30.28 "Hg6 mi
10:00 AM58 °FCool.2 mph71%30.28 "HgN/A
9:00 AM55 °FCool.1 mph77%30.26 "HgN/A
8:00 AM50 °FScattered clouds.2 mph91%30.25 "Hg7 mi
7:00 AM50 °FPartly sunny.2 mph91%30.24 "Hg7 mi
6:00 AM51 °FClear.2 mph91%30.23 "Hg6 mi
5:00 AM51 °FPassing clouds.2 mph91%30.22 "Hg6 mi
4:00 AM51 °FPassing clouds.1 mph93%30.21 "Hg6 mi
3:00 AM52 °FCool.1 mph91%30.21 "HgN/A
2:00 AM53 °FCool.5 mph91%30.21 "HgN/A
1:00 AM54 °FCool.3 mph88%30.20 "HgN/A
12:00 AM54 °FCool.2 mph87%30.20 "HgN/A
11:00 PM
Mon, Sep 26
56 °FPassing clouds.3 mph85%30.20 "Hg6 mi
10:00 PM56 °FCool.3 mph83%30.20 "HgN/A
Weather by CustomWeather, © 2016

See weather overviewHow to use our weather pages